DW5129 Weather Reports


time (UTC)temp
F
wind
direction
speed
knots
gust
knots
rain 1hr
in
rain 24hr
in
rain mn
in
humidity
%
barometer
mb
20260502195038 55 315 0.9 7.8 0.00 0.00 0.00 44 1014.9
20260502194538 55 308 0.9 3.5 0.00 0.00 0.00 44 1014.9
20260502194038 55 294 0.0 7.8 0.00 0.00 0.00 44 1015.0
20260502193538 55 273 1.7 10.4 0.00 0.00 0.00 43 1014.9
20260502193039 56 333 0.9 10.4 0.00 0.00 0.00 45 1015.0
20260502192537 58 262 0.0 10.4 0.00 0.00 0.00 44 1014.9
20260502192036 58 339 5.2 10.4 0.00 0.00 0.00 43 1015.0
20260502191539 58 299 0.0 3.5 0.00 0.00 0.00 49 1015.1
20260502191034 55 223 0.0 7.0 0.00 0.00 0.00 48 1015.1
20260502190534 55 333 0.9 7.0 0.00 0.00 0.00 46 1015.3
20260502190041 55 310 0.0 9.6 0.00 0.00 0.00 46 1015.4
20260502185532 55 328 3.5 9.6 0.00 0.00 0.00 46 1015.4
20260502185032 54 311 0.9 10.4 0.00 0.00 0.00 46 1015.4
20260502184532 55 306 4.3 10.4 0.00 0.00 0.00 44 1015.5
20260502184032 55 314 5.2 12.2 0.00 0.00 0.00 44 1015.4
20260502183532 55 355 2.6 11.3 0.00 0.00 0.00 45 1015.4
20260502183032 56 325 4.3 11.3 0.00 0.00 0.00 47 1015.5
20260502182535 55 311 4.3 9.6 0.00 0.00 0.00 47 1015.6
20260502182030 55 330 4.3 8.7 0.00 0.00 0.00 45 1015.6
20260502181536 54 350 2.6 8.7 0.00 0.00 0.00 47 1015.6
20260502181029 54 342 3.5 10.4 0.00 0.00 0.00 45 1015.7
20260502180529 55 305 0.9 10.4 0.00 0.00 0.00 47 1015.7
20260502164023 54 321 2.6 9.6 0.00 0.00 0.00 48 1016.1
20260502163526 54 260 0.9 12.2 0.00 0.00 0.00 45 1016.2
20260502163036 55 288 1.7 12.2 0.00 0.00 0.00 45 1016.3
20260502162523 55 308 4.3 13.0 0.00 0.00 0.00 46 1016.2
20260502162023 55 16 6.1 13.0 0.00 0.00 0.00 42 1016.3
20260502161524 56 328 4.3 12.2 0.00 0.00 0.00 46 1016.3
20260502161021 55 335 4.3 13.0 0.00 0.00 0.00 46 1016.4
20260502160523 56 336 6.1 13.0 0.00 0.00 0.00 48 1016.3
20260502152013 54 355 0.0 5.2 0.00 0.00 0.00 53 1016.5
20260502151525 54 9 0.0 7.8 0.00 0.00 0.00 54 1016.5
20260502151011 54 5 2.6 7.8 0.00 0.00 0.00 54 1016.5
20260502150510 54 340 0.9 5.2 0.00 0.00 0.00 56 1016.6
20260502130542 45 5 0.0 0.0 0.00 0.00 0.00 94 1016.8
20260502123533 42 355 0.0 0.0 0.00 0.00 0.00 96 1016.8
20260502123041 42 333 0.0 0.0 0.00 0.00 0.00 96 1016.7
20260502122535 42 333 0.0 0.0 0.00 0.00 0.00 96 1016.6
20260502122030 42 333 0.0 0.0 0.00 0.00 0.00 96 1016.5
20260502121529 41 333 0.0 0.0 0.00 0.00 0.00 96 1016.7
20260502121028 42 333 0.0 0.0 0.00 0.00 0.00 96 1016.8
20260502120531 41 333 0.0 0.0 0.00 0.00 0.00 96 1016.7
20260502115526 41 333 0.0 0.0 0.00 0.00 0.00 96 1016.5
20260502115027 41 333 0.0 0.0 0.00 0.00 0.00 95 1016.5
20260502114525 41 333 0.0 0.0 0.00 0.00 0.00 95 1016.5
20260502114024 41 333 0.0 0.0 0.00 0.00 0.00 95 1016.5
20260502113524 40 333 0.0 0.0 0.00 0.00 0.00 95 1016.6
20260502113024 40 333 0.0 0.0 0.00 0.00 0.00 95 1016.6
20260502112523 40 333 0.0 0.0 0.00 0.00 0.00 95 1016.5
20260502112024 40 333 0.0 0.0 0.00 0.00 0.00 95 1016.4
20260502111523 40 333 0.0 0.0 0.00 0.00 0.00 95 1016.4
20260502111021 40 333 0.0 0.0 0.00 0.00 0.00 95 1016.4
20260502110520 39 333 0.0 0.0 0.00 0.00 0.00 95 1016.2
20260502110021 39 333 0.0 0.0 0.00 0.00 0.00 95 1016.3
20260502105522 39 333 0.0 0.0 0.00 0.00 0.00 95 1016.3
20260502105018 39 333 0.0 0.0 0.00 0.00 0.00 95 1016.3
20260502104517 39 333 0.0 0.0 0.00 0.00 0.00 95 1016.2
20260502104017 39 333 0.0 0.0 0.00 0.00 0.00 95 1016.2
20260502103520 39 333 0.0 0.0 0.00 0.00 0.00 95 1016.1
20260502103017 39 333 0.0 0.0 0.00 0.00 0.00 95 1016.3
20260502102618 39 333 0.0 0.0 0.00 0.00 0.00 95 1016.4
20260502102016 39 333 0.0 0.0 0.00 0.00 0.00 95 1016.5
20260502101516 39 333 0.0 0.0 0.00 0.00 0.00 95 1016.5
20260502101015 39 333 0.0 0.0 0.00 0.00 0.00 95 1016.6
20260502100515 39 333 0.0 0.0 0.00 0.00 0.00 94 1016.5
20260502091515 40 333 0.0 0.0 0.00 0.00 0.00 94 1016.5
20260502091015 40 333 0.0 0.0 0.00 0.00 0.00 94 1016.4
20260502090513 40 333 0.0 0.0 0.00 0.00 0.00 94 1016.5
20260502071510 38 333 0.0 0.0 0.00 0.00 0.00 93 1016.0
20260502071009 38 333 0.0 0.0 0.00 0.00 0.00 93 1016.1
20260502070509 38 333 0.0 0.0 0.00 0.00 0.00 93 1016.2
20260502070008 38 333 0.0 0.0 0.00 0.00 0.00 93 1016.3
20260502065509 38 333 0.0 0.0 0.00 0.00 0.00 93 1016.4
20260502065007 38 333 0.0 0.0 0.00 0.00 0.00 93 1016.4
20260502064507 38 333 0.0 0.0 0.00 0.00 0.00 93 1016.4
20260502064012 38 333 0.0 0.0 0.00 0.00 0.00 93 1016.3
20260502063507 38 333 0.0 0.0 0.00 0.00 0.00 93 1016.3
20260502063007 38 333 0.0 0.0 0.00 0.00 0.00 93 1016.4
20260502062510 38 333 0.0 0.0 0.00 0.00 0.00 93 1016.6
20260502062006 38 333 0.0 0.0 0.00 0.00 0.00 93 1016.6
20260502061505 38 333 0.0 0.0 0.00 0.00 0.00 93 1016.6
20260502061004 38 333 0.0 0.0 0.00 0.00 0.00 93 1016.6
20260502060505 38 333 0.0 0.0 0.00 0.00 0.00 93 1016.8
20260502060003 38 333 0.0 0.0 0.00 0.00 0.00 92 1016.9
20260502055502 38 333 0.0 0.0 0.00 0.00 0.00 92 1016.9
20260502055003 38 333 0.0 0.0 0.00 0.00 0.00 92 1016.8
20260502054502 38 333 0.0 0.0 0.00 0.00 0.00 92 1016.8
20260502054005 38 333 0.0 0.0 0.00 0.00 0.00 92 1017.0
20260502053502 39 333 0.0 0.0 0.00 0.00 0.00 92 1017.0
20260502053001 39 333 0.0 0.0 0.00 0.00 0.00 92 1017.1
20260502052601 39 333 0.0 0.0 0.00 0.00 0.00 92 1017.0
20260502052102 39 333 0.0 0.0 0.00 0.00 0.00 91 1016.9
20260502051602 39 333 0.0 0.0 0.00 0.00 0.00 91 1016.9
20260502051058 39 333 0.0 0.0 0.00 0.00 0.00 91 1016.8
20260502050557 39 333 0.0 0.0 0.00 0.00 0.00 91 1016.9
20260502050101 40 333 0.0 0.0 0.00 0.00 0.00 91 1016.9
20260502045556 40 333 0.0 0.0 0.00 0.00 0.00 91 1016.9
20260502045056 40 333 0.0 0.0 0.00 0.00 0.00 91 1016.9
20260502044556 40 333 0.0 0.0 0.00 0.00 0.00 90 1016.9
20260502044055 40 333 0.0 0.0 0.00 0.00 0.00 90 1016.9
20260502043559 40 333 0.0 0.0 0.00 0.00 0.00 90 1016.9
20260502043101 40 333 0.0 0.0 0.00 0.00 0.00 89 1017.1
20260502042553 40 333 0.0 0.0 0.00 0.00 0.00 89 1017.1
20260502042056 40 333 0.0 0.0 0.00 0.00 0.00 89 1017.1
20260502041555 41 333 0.0 0.0 0.00 0.00 0.00 88 1017.1
20260502041049 41 333 0.0 0.0 0.00 0.00 0.00 88 1017.0
20260502040548 41 333 0.0 0.0 0.00 0.00 0.00 88 1017.0
20260502040051 41 333 0.0 0.0 0.00 0.00 0.00 88 1016.9
20260502035548 41 333 0.0 0.0 0.00 0.00 0.00 88 1016.9
20260502035048 41 333 0.0 0.0 0.00 0.00 0.00 88 1016.9
20260502034547 42 333 0.0 0.0 0.00 0.00 0.00 87 1016.7
20260502034047 42 333 0.0 0.0 0.00 0.00 0.00 87 1016.7
20260502033548 42 333 0.0 0.0 0.00 0.00 0.00 87 1016.8
20260502033047 42 333 0.0 0.0 0.00 0.00 0.00 86 1016.7
20260502032547 43 333 0.0 0.0 0.00 0.00 0.00 85 1016.8
20260502032047 43 333 0.0 0.0 0.00 0.00 0.00 85 1016.6
20260502031549 43 333 0.0 0.0 0.00 0.00 0.00 85 1016.6
20260502031046 44 333 0.0 0.0 0.00 0.00 0.00 84 1016.6
20260502030546 44 333 0.0 0.0 0.00 0.00 0.00 84 1016.8
20260502030045 44 333 0.0 0.0 0.00 0.00 0.00 84 1016.7
20260502025545 44 333 0.0 0.0 0.00 0.00 0.00 83 1016.7
20260502025045 44 333 0.0 0.0 0.00 0.00 0.00 82 1016.8
20260502024558 44 333 0.0 0.0 0.00 0.00 0.00 82 1016.9
20260502024045 44 333 0.0 0.0 0.00 0.00 0.00 81 1016.9
20260502023545 45 333 0.0 0.0 0.00 0.00 0.00 81 1016.8
20260502023045 45 333 0.0 0.0 0.00 0.00 0.00 80 1016.9
20260502022544 45 333 0.0 0.0 0.00 0.00 0.00 80 1016.8
20260502022043 46 333 0.0 0.0 0.00 0.00 0.00 78 1016.6
20260502021546 46 333 0.0 0.0 0.00 0.00 0.00 77 1016.3
20260502021042 47 333 0.0 0.0 0.00 0.00 0.00 75 1016.2
20260502020641 47 333 0.0 0.0 0.00 0.00 0.00 75 1016.2
20260502020041 47 333 0.0 0.0 0.00 0.00 0.00 74 1016.2
20260502015544 48 333 0.0 0.0 0.00 0.00 0.00 73 1015.9
20260502015043 48 333 0.0 0.0 0.00 0.00 0.00 72 1016.0
20260502014539 49 333 0.0 0.0 0.00 0.00 0.00 70 1016.0
20260502014038 49 333 0.0 0.0 0.00 0.00 0.00 69 1015.8
20260502013538 49 333 0.0 4.3 0.00 0.00 0.00 68 1015.8
20260502013040 50 333 0.0 4.3 0.00 0.00 0.00 67 1015.7
20260502012538 50 331 0.9 7.0 0.00 0.00 0.00 67 1015.7
20260502012038 51 360 0.0 7.0 0.00 0.00 0.00 66 1015.5
20260502011538 51 327 0.0 4.3 0.00 0.00 0.00 65 1015.4
20260502011036 51 327 0.9 4.3 0.00 0.00 0.00 65 1015.4
20260502010536 51 321 1.7 10.4 0.00 0.00 0.00 64 1015.3
20260502010036 52 320 2.6 10.4 0.00 0.00 0.00 63 1015.2
20260502005536 52 272 1.7 10.4 0.00 0.00 0.00 64 1015.1
20260502005036 53 340 3.5 11.3 0.00 0.00 0.00 64 1015.0
20260502004536 53 15 1.7 11.3 0.00 0.00 0.00 65 1014.8
20260502004039 53 308 6.1 11.3 0.00 0.00 0.00 64 1014.8
20260502003535 53 278 2.6 11.3 0.00 0.00 0.00 63 1014.4
20260502003035 54 294 5.2 11.3 0.00 0.00 0.00 63 1014.3
20260502002536 54 333 5.2 10.4 0.00 0.00 0.00 64 1014.3
20260502002035 54 323 3.5 11.3 0.00 0.00 0.00 65 1014.3
20260502001536 54 348 5.2 11.3 0.00 0.00 0.00 65 1014.1
20260502001034 54 300 1.7 9.6 0.00 0.00 0.00 65 1014.0
20260502000536 54 302 4.3 9.6 0.00 0.00 0.00 64 1013.8
20260502000039 54 306 2.6 9.6 0.00 0.00 0.00 63 1013.6
20260501235533 55 323 4.3 8.7 0.00 0.00 0.00 63 1013.6
20260501235033 55 311 2.6 11.3 0.00 0.00 0.00 62 1013.6
20260501234534 55 285 3.5 13.0 0.00 0.00 0.00 62 1013.3
20260501234035 55 336 3.5 13.0 0.00 0.00 0.00 63 1013.1
20260501233533 55 286 0.9 7.8 0.00 0.00 0.00 63 1012.9
20260501233033 55 313 1.7 7.8 0.00 0.00 0.00 63 1012.8
20260501232536 56 273 0.0 7.0 0.00 0.00 0.00 62 1012.8
20260501232032 56 273 1.7 7.8 0.00 0.00 0.00 61 1012.7
20260501231533 56 296 3.5 7.8 0.00 0.00 0.00 61 1012.8
20260501231033 56 322 2.6 7.8 0.00 0.00 0.00 60 1012.9
20260501230533 56 281 3.5 11.3 0.00 0.00 0.00 60 1012.8
20260501230036 56 318 6.1 11.3 0.00 0.00 0.00 60 1012.7
20260501225531 56 313 3.5 9.6 0.00 0.00 0.00 62 1012.6
20260501225032 56 307 0.9 7.8 0.00 0.00 0.00 63 1012.7
20260501224533 56 315 3.5 7.8 0.00 0.00 0.00 63 1012.8
20260501224031 56 305 0.0 7.0 0.00 0.00 0.00 66 1012.7
20260501223632 56 296 0.0 7.0 0.00 0.00 0.00 65 1012.7
20260501223033 56 329 1.7 8.7 0.00 0.00 0.00 66 1012.7
20260501222531 56 351 2.6 8.7 0.00 0.00 0.00 66 1012.7
20260501222032 56 296 2.6 7.8 0.00 0.00 0.00 67 1012.6
20260501221534 56 346 0.9 5.2 0.00 0.00 0.00 68 1012.7
20260501221030 55 360 1.7 5.2 0.00 0.00 0.00 67 1012.7
20260501220530 55 328 0.0 4.3 0.00 0.00 0.00 68 1012.5
20260501220031 56 328 0.0 4.3 0.00 0.00 0.00 68 1012.6
20260501215530 55 317 0.0 2.6 0.00 0.00 0.00 69 1012.5
20260501215030 55 317 0.9 2.6 0.00 0.00 0.00 70 1012.6
20260501214529 55 317 0.0 5.2 0.00 0.00 0.00 69 1012.7
20260501214030 56 317 2.6 5.2 0.00 0.00 0.00 66 1012.6
20260501213529 56 302 0.9 5.2 0.00 0.00 0.00 65 1012.7
20260501213029 56 302 0.0 4.3 0.00 0.00 0.00 65 1012.4
20260501212529 57 251 0.0 7.0 0.00 0.00 0.00 62 1012.4
20260501212029 57 292 1.7 7.8 0.00 0.00 0.00 62 1012.3
20260501211536 57 317 1.7 9.6 0.00 0.00 0.00 63 1012.5
20260501211028 57 327 4.3 9.6 0.00 0.00 0.00 62 1012.5
20260501210528 58 334 3.5 8.7 0.00 0.00 0.00 62 1012.2
20260501210028 58 306 2.6 11.3 0.00 0.00 0.00 63 1012.3
20260501205528 58 314 3.5 11.3 0.00 0.00 0.00 63 1012.2
20260501205028 59 298 0.9 10.4 0.00 0.00 0.00 64 1012.2
20260501204539 58 278 4.3 10.4 0.00 0.00 0.00 68 1012.2
20260501204027 58 300 3.5 13.9 0.00 0.00 0.00 67 1012.2
20260501203527 58 310 5.2 13.9 0.00 0.00 0.00 67 1012.2
20260501203027 58 286 5.2 12.2 0.00 0.00 0.00 63 1012.2
20260501202527 59 265 5.2 11.3 0.00 0.00 0.00 62 1012.2
20260501202029 60 331 4.3 10.4 0.00 0.00 0.00 62 1011.9
20260501201527 60 293 3.5 10.4 0.00 0.00 0.00 63 1011.8
20260501201026 59 313 2.6 10.4 0.00 0.00 0.00 63 1011.8
20260501200525 59 325 3.5 10.4 0.00 0.00 0.00 60 1011.8
20260501200027 60 294 1.7 7.0 0.00 0.00 0.00 60 1011.5
20260501195525 60 317 0.9 4.3 0.00 0.00 0.00 59 1011.5